SCP
-0 0 0 1 1 0 0 0 0 0 0 0 0 0 0 0 0 0 0 0 0 0 0 0 0 0 0 0 0 0 0 0 0 0 0 0 0 0 0 0 0 0 -0
0 0 1 1 1 0 0 0 0 0 0 0 0 0 0 0 0 0 0 0 0 0 0 0 0 0 0 0 0 0 0 0 0 1 0 0 0 1 1 0 0 0 0
0 0 1 1 1 0 0 0 0 0 0 0 0 0 0 0 0 0 0 0 0 0 0 0 0 0 0 0 0 0 0 0 0 1 0 0 0 0 0 0 0 0 0
0 0 1 1 1 0 0 1 1 1 0 0 0 0 0 0 0 0 0 0 0 0 0 0 0 0 0 0 0 0 0 0 0 1 0 0 0 0 0 0 0 0 0
0 0 0 1 1 1 1 1 1 1 1 0 0 0 0 0 0 0 0 0 0 0 0 0 0 0 0 0 0 0 0 0 0 1 0 0 0 0 1 0 0 0 0
0 0 0 1 1 2 1 1 1 1 1 1 0 0 0 0 0 0 0 0 0 0 0 0 0 0 0 0 0 0 0 0 0 1 0 0 0 0 0 0 0 0 0
0 0 2 1 2 2 1 1 1 1 1 1 0 0 0 0 0 0 0 0 0 0 0 0 0 0 0 0 0 0 0 0 0 0 0 0 0 0 0 1 0 0 0
1 1 2 2 1 1 1 1 1 1 1 0 0 0 0 0 0 0 0 0 0 0 0 0 0 0 0 0 0 0 0 0 0 0 0 0 0 0 0 0 1 1 1
0 1 1 2 1 1 1 1 1 1 0 0 0 0 0 0 0 0 0 0 0 0 0 0 0 0 0 0 0 0 0 0 0 0 0 0 0 0 0 1 1 1 1
0 0 1 1 1 1 1 1 1 0 0 0 0 0 0 0 0 0 0 0 0 0 0 0 0 0 0 0 0 0 0 0 0 0 0 1 0 0 0 0 0 1 1
0 0 0 0 0 0 0 0 0 0 0 0 0 0 0 0 0 0 0 0 0 0 0 0 0 0 0 0 0 0 0 0 0 0 0 1 1 0 0 0 1 1 1
0 0 0 0 0 0 0 0 0 0 0 0 0 0 0 0 0 0 0 0 0 0 0 -0 0 0 0 0 0 0 0 0 0 0 0 1 0 0 0 0 0 0 0
0 0 0 0 0 0 0 0 0 0 0 0 0 0 0 0 0 0 0 0 0 0 0 0 0 0 0 0 0 0 0 0 0 0 0 1 0 0 0 0 0 0 0
0 0 0 0 0 0 0 0 0 0 0 0 0 0 0 0 0 0 0 0 0 0 0 0 0 0 0 0 0 0 0 0 0 0 0 0 0 0 0 0 0 0 0
0 0 0 0 0 0 0 0 0 0 0 0 0 0 0 0 0 0 0 0 0 0 0 0 0 0 0 0 0 0 0 0 0 0 0 0 0 0 0 0 0 0 0
0 0 0 0 0 0 0 0 0 0 0 0 0 0 0 0 0 0 0 0 0 0 0 0 0 0 0 0 0 0 0 0 0 0 0 0 0 0 0 0 0 0 0
0 0 0 0 0 0 0 0 0 0 0 0 0 0 0 0 0 0 0 0 0 0 0 0 0 0 0 0 0 0 0 0 0 0 0 1 0 0 0 0 0 0 0
0 0 0 0 0 0 0 0 0 0 0 0 0 0 0 0 0 0 0 0 0 0 0 0 0 0 0 0 0 0 0 0 0 0 0 0 0 0 0 0 0 0 0
0 0 0 0 0 0 0 0 0 0 0 0 0 0 0 0 0 0 0 0 0 0 0 0 0 0 0 0 0 0 0 0 0 0 0 0 0 0 0 0 0 0 0
0 0 0 0 0 0 0 0 0 0 0 0 0 0 0 0 0 0 0 0 0 0 0 0 0 0 0 0 0 0 0 0 0 0 0 0 0 0 0 0 0 0 -0
0 0 0 0 0 0 0 0 0 0 0 0 0 0 0 0 0 0 0 0 0 0 -0 0 0 0 0 0 0 0 0 0 0 0 0 0 0 0 0 0 0 0 0
0 0 0 0 0 0 0 0 0 0 0 0 0 0 0 0 0 0 0 0 0 -0 0 0 0 0 0 0 0 0 0 0 0 0 0 0 0 0 0 0 0 0 0
0 0 0 0 0 0 0 0 0 0 0 0 0 0 0 0 0 0 -0 0 -0 0 0 0 0 0 0 0 0 0 0 0 0 0 0 0 0 0 0 0 0 0 0
0 0 0 0 0 0 0 0 0 0 0 0 0 0 0 0 0 -0 0 -0 -0 0 0 0 0 0 0 0 0 0 0 0 0 0 0 0 0 0 0 0 0 0 0
0 0 0 0 0 0 0 0 0 0 0 0 0 0 0 0 -0 -0 0 -0 0 0 0 0 0 0 0 0 0 0 0 0 0 0 0 0 0 0 0 0 0 0 0
0 0 0 0 0 0 0 0 0 0 0 0 0 0 0 0 0 0 -0 -0 0 0 0 0 0 0 0 0 0 0 0 0 0 0 0 0 0 0 0 0 0 0 0
Wind_Speed_500mb
35 37 21 19 21 17 13 11 10 11 12 12 13 13 16 19 20 21 23 22 21 18 23 23 28 28 32 35 39 42 42 43 41 40 42 45 39 30 24 26 23 20 19
20 32 27 23 17 14 12 13 15 17 18 18 17 17 19 20 19 21 24 25 24 23 20 26 25 29 28 31 33 39 44 42 41 40 41 42 41 41 35 31 32 29 26
23 29 28 19 12 14 14 15 19 22 24 24 23 24 23 21 21 21 25 26 25 25 24 22 28 28 30 27 28 34 41 42 40 41 43 44 46 39 40 33 32 38 41
20 24 19 17 13 14 15 19 23 26 28 29 30 28 24 29 29 26 29 30 29 28 28 25 24 29 29 31 26 31 36 39 40 37 43 44 49 44 35 34 38 40 44
21 10 11 14 14 14 18 23 27 30 33 33 31 32 36 36 35 34 32 33 34 32 32 32 29 28 32 32 35 27 29 31 37 36 38 44 46 52 38 32 41 45 44
18 10 13 16 17 18 21 27 30 32 34 34 36 38 40 44 42 41 40 39 36 38 37 37 36 31 33 36 31 31 31 32 34 37 34 38 47 48 46 41 38 48 46
20 17 19 20 20 20 22 25 27 28 32 36 41 44 47 46 44 45 46 43 42 41 40 41 41 39 35 38 35 36 37 34 33 36 32 34 41 48 51 44 41 48 54
23 22 26 24 23 22 28 28 26 24 24 28 34 39 43 46 51 53 50 48 50 51 47 47 47 44 40 35 40 38 38 34 33 36 33 33 36 44 50 49 48 53 56
25 27 27 25 21 25 31 31 31 32 29 27 30 38 40 43 50 52 52 53 52 52 52 53 51 47 47 41 42 42 36 36 34 35 34 33 33 39 48 54 54 58 59
25 29 30 22 22 29 30 30 30 33 29 29 31 35 30 30 29 30 33 37 39 43 44 47 51 53 50 45 45 41 40 35 34 36 33 34 34 36 45 54 59 64 65
32 29 24 27 27 26 25 30 36 33 32 33 36 32 38 31 23 24 26 28 27 30 30 37 45 53 51 48 45 46 39 36 36 37 37 34 37 34 40 55 62 68 72
32 34 34 32 25 22 27 32 31 32 35 35 32 30 35 22 23 21 22 21 27 26 33 36 42 45 47 49 43 46 40 34 36 39 42 35 34 35 41 56 67 78 70
43 45 41 32 22 23 29 30 26 28 33 32 28 35 30 22 21 20 21 22 25 30 28 30 38 43 45 48 42 40 38 31 34 41 43 36 34 39 48 53 64 71 71
49 55 47 35 27 22 26 22 19 23 22 26 32 33 25 21 19 21 20 20 21 20 23 28 33 39 44 41 33 34 34 31 34 41 46 36 34 42 51 59 65 76 82
52 55 44 34 25 22 23 14 17 19 19 22 22 27 29 27 25 20 23 27 24 23 24 24 32 39 42 36 29 35 34 29 34 41 43 37 35 45 54 52 63 74 65
56 55 43 28 20 22 16 12 18 19 19 21 22 25 31 33 30 23 22 25 26 29 26 26 27 37 42 37 32 39 35 28 37 40 41 41 36 48 49 50 62 61 75
55 47 34 23 20 16 9 10 17 22 24 27 25 24 26 30 30 30 27 26 22 25 29 31 28 34 36 41 36 45 33 32 36 40 39 43 37 47 47 46 59 69 79
57 46 29 22 16 14 8 13 20 25 29 30 28 24 23 27 28 29 28 25 23 26 26 33 33 33 36 39 41 47 34 34 41 41 42 40 39 47 45 47 58 65 72
57 41 27 19 10 7 6 10 19 26 29 26 25 24 23 23 23 26 22 20 22 21 25 32 37 36 36 37 43 38 34 37 40 42 47 43 40 46 45 54 61 64 67
50 33 24 16 6 5 3 9 17 26 28 27 23 19 19 19 22 23 17 19 20 17 19 33 42 39 38 38 36 38 33 35 39 38 42 41 38 39 52 62 69 63 75
43 30 25 15 10 9 6 12 20 30 31 28 18 19 20 17 17 19 18 19 15 11 15 28 32 40 38 30 34 34 35 37 32 35 37 38 41 45 49 62 73 68 74
41 29 24 16 10 7 4 12 21 27 24 27 15 15 17 21 13 19 18 15 10 9 21 27 32 38 35 32 37 37 31 30 29 31 36 42 42 42 54 66 80 78 82
37 29 24 15 11 5 9 10 18 15 21 25 15 11 17 12 6 18 16 14 14 14 20 24 33 36 34 35 33 36 19 13 34 33 39 46 45 48 47 62 74 77 70
33 29 23 17 10 12 5 7 15 21 25 25 11 11 4 2 12 15 15 18 17 16 22 25 34 37 33 35 34 28 22 33 31 30 45 51 51 54 52 57 70 76 64
33 31 25 18 11 12 10 8 17 22 19 14 7 6 4 5 11 19 22 22 22 20 19 20 31 30 31 35 41 35 29 30 42 35 47 55 50 51 56 63 68 74 68
33 30 27 20 10 6 9 6 16 14 16 13 8 7 8 10 16 27 26 29 24 23 20 19 22 31 25 37 35 34 32 47 44 57 58 64 63 54 61 64 68 71 74
Wind_Direction_500mb
185 184 183 204 205 216 219 226 252 260 263 263 254 255 264 277 289 291 292 292 285 263 256 248 230 227 228 230 229 226 224 225 224 222 222 220 220 218 201 193 205 190 178
173 184 202 201 203 224 238 259 266 261 263 265 259 250 248 249 261 274 275 280 282 283 265 254 245 229 228 230 232 231 228 227 228 229 225 218 219 215 215 204 208 194 177
188 193 204 204 234 245 251 276 275 273 267 269 270 272 272 255 259 265 269 271 275 281 274 260 246 243 233 235 238 236 233 228 229 229 227 226 220 222 221 210 210 197 200
194 195 213 222 244 253 268 288 283 278 274 276 272 276 270 274 279 270 261 261 265 272 268 266 252 243 244 238 246 239 239 231 228 229 229 226 222 222 217 215 209 197 192
185 215 239 234 232 239 267 274 275 273 272 271 267 267 278 277 277 274 265 263 266 263 264 263 257 248 242 240 240 242 249 238 226 228 230 227 227 223 221 214 209 197 192
196 217 227 227 229 249 276 288 285 276 270 268 269 269 273 277 275 271 270 268 264 261 258 257 263 251 243 242 234 237 242 239 229 226 235 227 225 228 225 220 215 197 195
205 207 218 232 245 277 285 289 292 287 281 271 268 269 273 273 274 268 269 268 268 263 257 249 247 251 237 239 227 234 233 237 233 225 231 231 224 223 226 215 212 205 197
213 208 220 244 256 262 293 295 303 294 288 279 272 270 270 269 267 265 266 265 264 261 253 247 248 243 240 235 229 231 233 235 233 224 227 227 224 219 221 213 208 207 203
223 228 235 247 249 287 297 300 302 308 297 284 281 286 283 278 270 266 266 263 260 255 249 244 242 242 239 235 236 232 233 233 231 222 225 222 219 218 220 211 204 203 197
225 234 238 241 256 278 289 298 297 300 288 290 295 300 298 296 283 270 263 258 258 255 252 245 237 235 234 232 234 232 233 234 229 218 221 218 218 218 215 207 201 193 188
224 235 245 234 248 271 273 288 295 285 282 294 309 312 312 299 288 279 266 252 256 257 246 240 234 231 227 230 234 229 231 233 227 217 216 214 219 216 211 207 195 191 186
221 229 234 228 252 265 281 292 298 290 290 300 303 306 305 297 296 282 269 257 260 260 250 240 231 228 224 226 232 228 229 229 226 217 215 214 219 213 211 207 198 193 190
215 218 217 228 238 274 300 303 303 290 285 285 290 297 293 290 296 276 272 255 253 255 256 241 228 222 222 224 232 226 223 220 221 216 214 213 218 213 206 200 195 190 183
217 208 205 215 249 280 305 306 317 309 301 296 288 290 276 275 287 277 265 261 255 255 249 240 233 222 218 222 222 217 215 212 214 212 215 215 213 202 200 200 199 195 190
216 206 213 232 260 298 307 306 325 344 318 311 292 279 278 283 273 283 271 261 262 263 256 243 230 222 217 216 217 208 201 206 210 207 216 216 210 203 201 198 200 196 196
208 215 221 234 261 301 323 324 324 322 320 315 304 283 276 278 274 276 282 268 259 267 253 241 225 216 219 216 219 199 201 202 203 207 210 215 212 200 200 197 200 199 187
219 216 220 237 264 308 328 319 336 337 325 314 309 294 282 279 271 271 280 271 264 269 251 234 221 219 221 213 214 197 207 203 207 214 210 215 215 204 206 204 197 198 194
217 211 220 239 275 312 317 328 333 322 319 311 301 294 287 276 271 266 265 261 266 267 248 230 220 213 212 209 199 201 208 214 211 223 214 217 217 204 206 196 187 190 171
216 212 223 232 264 310 308 321 321 326 319 308 291 289 281 273 271 264 248 256 268 266 246 227 217 209 204 203 196 204 209 213 212 222 214 214 213 197 189 185 186 177 162
209 214 220 214 231 203 204 286 302 324 329 325 305 298 292 283 263 256 242 257 265 262 246 211 207 207 201 206 205 204 215 211 224 207 205 209 209 199 190 182 174 174 160
207 210 203 204 185 177 212 285 306 314 327 331 305 293 289 297 268 240 229 241 256 248 214 193 198 199 198 204 205 203 202 204 207 196 202 207 197 199 195 195 176 169 162
204 198 196 190 172 155 269 273 305 314 329 335 307 307 306 294 254 234 220 228 214 198 180 184 191 194 201 197 189 172 162 191 201 199 204 199 190 189 192 180 165 170 164
195 195 192 180 164 159 208 292 317 323 335 337 318 305 316 294 243 183 202 196 183 174 175 180 182 189 195 189 197 179 147 175 183 197 196 192 187 174 174 169 173 168 163
191 186 177 179 168 207 222 304 333 333 336 334 320 318 340 356 159 176 173 166 164 161 172 187 195 189 195 195 186 196 194 196 169 168 190 185 178 178 178 168 172 169 163
186 180 177 178 204 226 243 331 341 334 346 348 348 0 30 145 160 162 153 149 154 158 160 171 176 187 194 192 193 197 208 195 181 176 149 165 169 171 172 171 172 170 166
178 174 178 185 206 230 189 265 320 332 5 6 355 325 351 187 177 166 163 160 153 155 150 162 185 182 194 189 190 206 214 189 192 157 154 157 167 176 178 180 172 174 169
Wind_Speed_850mb
35 37 21 19 21 17 13 11 10 11 12 12 13 13 16 19 20 21 23 22 21 18 23 23 28 28 32 35 39 42 42 43 41 40 42 45 39 30 24 26 23 20 19
20 32 27 23 17 14 12 13 15 17 18 18 17 17 19 20 19 21 24 25 24 23 20 26 25 29 28 31 33 39 44 42 41 40 41 42 41 41 35 31 32 29 26
23 29 28 19 12 14 14 15 19 22 24 24 23 24 23 21 21 21 25 26 25 25 24 22 28 28 30 27 28 34 41 42 40 41 43 44 46 39 40 33 32 38 41
20 24 19 17 13 14 15 19 23 26 28 29 30 28 24 29 29 26 29 30 29 28 28 25 24 29 29 31 26 31 36 39 40 37 43 44 49 44 35 34 38 40 44
21 10 11 14 14 14 18 23 27 30 33 33 31 32 36 36 35 34 32 33 34 32 32 32 29 28 32 32 35 27 29 31 37 36 38 44 46 52 38 32 41 45 44
18 10 13 16 17 18 21 27 30 32 34 34 36 38 40 44 42 41 40 39 36 38 37 37 36 31 33 36 31 31 31 32 34 37 34 38 47 48 46 41 38 48 46
20 17 19 20 20 20 22 25 27 28 32 36 41 44 47 46 44 45 46 43 42 41 40 41 41 39 35 38 35 36 37 34 33 36 32 34 41 48 51 44 41 48 54
23 22 26 24 23 22 28 28 26 24 24 28 34 39 43 46 51 53 50 48 50 51 47 47 47 44 40 35 40 38 38 34 33 36 33 33 36 44 50 49 48 53 56
25 27 27 25 21 25 31 31 31 32 29 27 30 38 40 43 50 52 52 53 52 52 52 53 51 47 47 41 42 42 36 36 34 35 34 33 33 39 48 54 54 58 59
25 29 30 22 22 29 30 30 30 33 29 29 31 35 30 30 29 30 33 37 39 43 44 47 51 53 50 45 45 41 40 35 34 36 33 34 34 36 45 54 59 64 65
32 29 24 27 27 26 25 30 36 33 32 33 36 32 38 31 23 24 26 28 27 30 30 37 45 53 51 48 45 46 39 36 36 37 37 34 37 34 40 55 62 68 72
32 34 34 32 25 22 27 32 31 32 35 35 32 30 35 22 23 21 22 21 27 26 33 36 42 45 47 49 43 46 40 34 36 39 42 35 34 35 41 56 67 78 70
43 45 41 32 22 23 29 30 26 28 33 32 28 35 30 22 21 20 21 22 25 30 28 30 38 43 45 48 42 40 38 31 34 41 43 36 34 39 48 53 64 71 71
49 55 47 35 27 22 26 22 19 23 22 26 32 33 25 21 19 21 20 20 21 20 23 28 33 39 44 41 33 34 34 31 34 41 46 36 34 42 51 59 65 76 82
52 55 44 34 25 22 23 14 17 19 19 22 22 27 29 27 25 20 23 27 24 23 24 24 32 39 42 36 29 35 34 29 34 41 43 37 35 45 54 52 63 74 65
56 55 43 28 20 22 16 12 18 19 19 21 22 25 31 33 30 23 22 25 26 29 26 26 27 37 42 37 32 39 35 28 37 40 41 41 36 48 49 50 62 61 75
55 47 34 23 20 16 9 10 17 22 24 27 25 24 26 30 30 30 27 26 22 25 29 31 28 34 36 41 36 45 33 32 36 40 39 43 37 47 47 46 59 69 79
57 46 29 22 16 14 8 13 20 25 29 30 28 24 23 27 28 29 28 25 23 26 26 33 33 33 36 39 41 47 34 34 41 41 42 40 39 47 45 47 58 65 72
57 41 27 19 10 7 6 10 19 26 29 26 25 24 23 23 23 26 22 20 22 21 25 32 37 36 36 37 43 38 34 37 40 42 47 43 40 46 45 54 61 64 67
50 33 24 16 6 5 3 9 17 26 28 27 23 19 19 19 22 23 17 19 20 17 19 33 42 39 38 38 36 38 33 35 39 38 42 41 38 39 52 62 69 63 75
43 30 25 15 10 9 6 12 20 30 31 28 18 19 20 17 17 19 18 19 15 11 15 28 32 40 38 30 34 34 35 37 32 35 37 38 41 45 49 62 73 68 74
41 29 24 16 10 7 4 12 21 27 24 27 15 15 17 21 13 19 18 15 10 9 21 27 32 38 35 32 37 37 31 30 29 31 36 42 42 42 54 66 80 78 82
37 29 24 15 11 5 9 10 18 15 21 25 15 11 17 12 6 18 16 14 14 14 20 24 33 36 34 35 33 36 19 13 34 33 39 46 45 48 47 62 74 77 70
33 29 23 17 10 12 5 7 15 21 25 25 11 11 4 2 12 15 15 18 17 16 22 25 34 37 33 35 34 28 22 33 31 30 45 51 51 54 52 57 70 76 64
33 31 25 18 11 12 10 8 17 22 19 14 7 6 4 5 11 19 22 22 22 20 19 20 31 30 31 35 41 35 29 30 42 35 47 55 50 51 56 63 68 74 68
33 30 27 20 10 6 9 6 16 14 16 13 8 7 8 10 16 27 26 29 24 23 20 19 22 31 25 37 35 34 32 47 44 57 58 64 63 54 61 64 68 71 74
Wind_Direction_850mb
185 184 183 204 205 216 219 226 252 260 263 263 254 255 264 277 289 291 292 292 285 263 256 248 230 227 228 230 229 226 224 225 224 222 222 220 220 218 201 193 205 190 178
173 184 202 201 203 224 238 259 266 261 263 265 259 250 248 249 261 274 275 280 282 283 265 254 245 229 228 230 232 231 228 227 228 229 225 218 219 215 215 204 208 194 177
188 193 204 204 234 245 251 276 275 273 267 269 270 272 272 255 259 265 269 271 275 281 274 260 246 243 233 235 238 236 233 228 229 229 227 226 220 222 221 210 210 197 200
194 195 213 222 244 253 268 288 283 278 274 276 272 276 270 274 279 270 261 261 265 272 268 266 252 243 244 238 246 239 239 231 228 229 229 226 222 222 217 215 209 197 192
185 215 239 234 232 239 267 274 275 273 272 271 267 267 278 277 277 274 265 263 266 263 264 263 257 248 242 240 240 242 249 238 226 228 230 227 227 223 221 214 209 197 192
196 217 227 227 229 249 276 288 285 276 270 268 269 269 273 277 275 271 270 268 264 261 258 257 263 251 243 242 234 237 242 239 229 226 235 227 225 228 225 220 215 197 195
205 207 218 232 245 277 285 289 292 287 281 271 268 269 273 273 274 268 269 268 268 263 257 249 247 251 237 239 227 234 233 237 233 225 231 231 224 223 226 215 212 205 197
213 208 220 244 256 262 293 295 303 294 288 279 272 270 270 269 267 265 266 265 264 261 253 247 248 243 240 235 229 231 233 235 233 224 227 227 224 219 221 213 208 207 203
223 228 235 247 249 287 297 300 302 308 297 284 281 286 283 278 270 266 266 263 260 255 249 244 242 242 239 235 236 232 233 233 231 222 225 222 219 218 220 211 204 203 197
225 234 238 241 256 278 289 298 297 300 288 290 295 300 298 296 283 270 263 258 258 255 252 245 237 235 234 232 234 232 233 234 229 218 221 218 218 218 215 207 201 193 188
224 235 245 234 248 271 273 288 295 285 282 294 309 312 312 299 288 279 266 252 256 257 246 240 234 231 227 230 234 229 231 233 227 217 216 214 219 216 211 207 195 191 186
221 229 234 228 252 265 281 292 298 290 290 300 303 306 305 297 296 282 269 257 260 260 250 240 231 228 224 226 232 228 229 229 226 217 215 214 219 213 211 207 198 193 190
215 218 217 228 238 274 300 303 303 290 285 285 290 297 293 290 296 276 272 255 253 255 256 241 228 222 222 224 232 226 223 220 221 216 214 213 218 213 206 200 195 190 183
217 208 205 215 249 280 305 306 317 309 301 296 288 290 276 275 287 277 265 261 255 255 249 240 233 222 218 222 222 217 215 212 214 212 215 215 213 202 200 200 199 195 190
216 206 213 232 260 298 307 306 325 344 318 311 292 279 278 283 273 283 271 261 262 263 256 243 230 222 217 216 217 208 201 206 210 207 216 216 210 203 201 198 200 196 196
208 215 221 234 261 301 323 324 324 322 320 315 304 283 276 278 274 276 282 268 259 267 253 241 225 216 219 216 219 199 201 202 203 207 210 215 212 200 200 197 200 199 187
219 216 220 237 264 308 328 319 336 337 325 314 309 294 282 279 271 271 280 271 264 269 251 234 221 219 221 213 214 197 207 203 207 214 210 215 215 204 206 204 197 198 194
217 211 220 239 275 312 317 328 333 322 319 311 301 294 287 276 271 266 265 261 266 267 248 230 220 213 212 209 199 201 208 214 211 223 214 217 217 204 206 196 187 190 171
216 212 223 232 264 310 308 321 321 326 319 308 291 289 281 273 271 264 248 256 268 266 246 227 217 209 204 203 196 204 209 213 212 222 214 214 213 197 189 185 186 177 162
209 214 220 214 231 203 204 286 302 324 329 325 305 298 292 283 263 256 242 257 265 262 246 211 207 207 201 206 205 204 215 211 224 207 205 209 209 199 190 182 174 174 160
207 210 203 204 185 177 212 285 306 314 327 331 305 293 289 297 268 240 229 241 256 248 214 193 198 199 198 204 205 203 202 204 207 196 202 207 197 199 195 195 176 169 162
204 198 196 190 172 155 269 273 305 314 329 335 307 307 306 294 254 234 220 228 214 198 180 184 191 194 201 197 189 172 162 191 201 199 204 199 190 189 192 180 165 170 164
195 195 192 180 164 159 208 292 317 323 335 337 318 305 316 294 243 183 202 196 183 174 175 180 182 189 195 189 197 179 147 175 183 197 196 192 187 174 174 169 173 168 163
191 186 177 179 168 207 222 304 333 333 336 334 320 318 340 356 159 176 173 166 164 161 172 187 195 189 195 195 186 196 194 196 169 168 190 185 178 178 178 168 172 169 163
186 180 177 178 204 226 243 331 341 334 346 348 348 0 30 145 160 162 153 149 154 158 160 171 176 187 194 192 193 197 208 195 181 176 149 165 169 171 172 171 172 170 166
178 174 178 185 206 230 189 265 320 332 5 6 355 325 351 187 177 166 163 160 153 155 150 162 185 182 194 189 190 206 214 189 192 157 154 157 167 176 178 180 172 174 169